• In Russia
  • List of Countries
  • For 7 days
  • Water Temperature
  • Satellite Maps
  • Weather Map
  • Weather Widgets
  • user-avatar
    Login

    Hourly Weather Sagan-Nur

    Today, 24 February, Sunday

    Time Temperature Precipitation Wind Pressure Humidity
    00:00 -25°C° 0 mm 2 mps 572 mmHg 96%
    01:00 -25°C° 0 mm 2 mps 572 mmHg 96%
    02:00 -25°C° 0 mm 2 mps 572 mmHg 96%
    03:00 -25°C° 0 mm 2 mps 572 mmHg 96%
    04:00 -25°C° 0 mm 2 mps 571 mmHg 96%
    05:00 -25°C° 0 mm 2 mps 571 mmHg 96%
    06:00 -25°C° 0 mm 2 mps 571 mmHg 95%
    07:00 -25°C° 0 mm 2 mps 571 mmHg 95%
    08:00 -23°C° 0 mm 2 mps 572 mmHg 91%
    09:00 -20°C° 0 mm 2 mps 573 mmHg 88%
    10:00 -18°C° 0 mm 2 mps 574 mmHg 84%
    11:00 -17°C° 0 mm 2 mps 573 mmHg 81%
    12:00 -15°C° 0 mm 2 mps 573 mmHg 79%
    13:00 -14°C° 0 mm 2 mps 573 mmHg 76%
    14:00 -14°C° 0 mm 2 mps 573 mmHg 77%
    15:00 -11°C° 0 mm 1 mps 572 mmHg 79%
    16:00 -11°C° 0 mm 1 mps 572 mmHg 80%
    17:00 -16°C° 0 mm 2 mps 571 mmHg 82%
    18:00 -18°C° 0 mm 2 mps 570 mmHg 84%
    19:00 -20°C° 0 mm 2 mps 569 mmHg 85%
    20:00 -20°C° 0 mm 2 mps 569 mmHg 82%
    21:00 -20°C° 0 mm 2 mps 569 mmHg 79%
    22:00 -21°C° 0 mm 2 mps 569 mmHg 76%
    23:00 -21°C° 0 mm 2 mps 568 mmHg 75%

    Tomorrow, 25 February, Monday

    Time Temperature Precipitation Wind Pressure Humidity
    00:00 -21°C° 0 mm 2 mps 568 mmHg 74%
    01:00 -21°C° 0 mm 2 mps 568 mmHg 73%
    02:00 -21°C° 0 mm 2 mps 568 mmHg 73%
    03:00 -21°C° 0 mm 2 mps 568 mmHg 73%
    04:00 -21°C° 0 mm 2 mps 567 mmHg 74%
    05:00 -21°C° 0 mm 2 mps 567 mmHg 73%
    06:00 -21°C° 0 mm 2 mps 567 mmHg 72%
    07:00 -21°C° 0 mm 2 mps 567 mmHg 71%
    08:00 -19°C° 0 mm 2 mps 568 mmHg 71%
    09:00 -18°C° 0 mm 2 mps 568 mmHg 70%
    10:00 -16°C° 0 mm 2 mps 569 mmHg 69%
    11:00 -15°C° 0 mm 2 mps 569 mmHg 68%
    12:00 -13°C° 0 mm 2 mps 569 mmHg 66%
    13:00 -12°C° 0 mm 2 mps 569 mmHg 65%
    14:00 -12°C° 0 mm 2 mps 569 mmHg 68%
    15:00 -13°C° 0 mm 2 mps 568 mmHg 72%
    16:00 -13°C° 0 mm 2 mps 568 mmHg 76%
    17:00 -15°C° 0 mm 2 mps 567 mmHg 79%
    18:00 -18°C° 0 mm 2 mps 566 mmHg 82%
    19:00 -20°C° 0 mm 2 mps 566 mmHg 85%
    20:00 -21°C° 0 mm 2 mps 566 mmHg 84%
    21:00 -21°C° 0 mm 2 mps 566 mmHg 82%
    22:00 -21°C° 0 mm 2 mps 566 mmHg 81%
    23:00 -21°C° 0 mm 2 mps 566 mmHg 81%

    Day after tomorrow, 26 February, Tuesday

    Time Temperature Precipitation Wind Pressure Humidity
    00:00 -23°C° 0 mm 2 mps 566 mmHg 81%
    01:00 -23°C° 0 mm 2 mps 566 mmHg 80%
    02:00 -23°C° 0 mm 2 mps 566 mmHg 81%
    03:00 -23°C° 0 mm 2 mps 566 mmHg 83%
    04:00 -23°C° 0 mm 2 mps 566 mmHg 84%
    05:00 -23°C° 0 mm 2 mps 566 mmHg 84%
    06:00 -23°C° 0 mm 2 mps 566 mmHg 85%
    07:00 -21°C° 0 mm 2 mps 566 mmHg 85%
    08:00 -20°C° 0 mm 2 mps 567 mmHg 83%
    09:00 -18°C° 0 mm 2 mps 568 mmHg 81%
    10:00 -16°C° 0 mm 2 mps 569 mmHg 79%
    11:00 -15°C° 0 mm 2 mps 569 mmHg 75%
    12:00 -14°C° 0 mm 2 mps 569 mmHg 72%
    13:00 -13°C° 0 mm 2 mps 569 mmHg 68%
    14:00 -14°C° 0 mm 2 mps 569 mmHg 70%
    15:00 -14°C° 0 mm 2 mps 568 mmHg 72%
    16:00 -14°C° 0 mm 2 mps 568 mmHg 74%
    17:00 -17°C° 0 mm 2 mps 567 mmHg 78%
    18:00 -19°C° 0 mm 2 mps 566 mmHg 82%
    19:00 -21°C° 0 mm 2 mps 566 mmHg 85%
    20:00 -21°C° 0 mm 2 mps 566 mmHg 85%
    21:00 -23°C° 0 mm 2 mps 566 mmHg 85%
    22:00 -23°C° 0 mm 2 mps 566 mmHg 85%
    23:00 -21°C° 0 mm 2 mps 567 mmHg 86%

    27 February, Wednesday

    Time Temperature Precipitation Wind Pressure Humidity
    00:00 -21°C° 0 mm 2 mps 567 mmHg 86%
    01:00 -21°C° 0 mm 2 mps 567 mmHg 87%
    02:00 -21°C° 0 mm 2 mps 567 mmHg 88%
    03:00 -21°C° 0 mm 2 mps 567 mmHg 89%
    04:00 -23°C° 0 mm 2 mps 567 mmHg 90%
    05:00 -23°C° 0 mm 2 mps 567 mmHg 89%
    06:00 -24°C° 0 mm 3 mps 567 mmHg 87%
    07:00 -25°C° 0 mm 3 mps 567 mmHg 85%
    08:00 -23°C° 0 mm 3 mps 567 mmHg 82%
    09:00 -19°C° 0 mm 2 mps 568 mmHg 78%
    10:00 -17°C° 0 mm 2 mps 568 mmHg 75%
    11:00 -17°C° 0 mm 3 mps 568 mmHg 72%
    12:00 -16°C° 0 mm 3 mps 568 mmHg 69%
    13:00 -14°C° 0 mm 3 mps 568 mmHg 66%
    14:00 -15°C° 0 mm 3 mps 568 mmHg 69%
    15:00 -15°C° 0 mm 3 mps 567 mmHg 71%
    16:00 -15°C° 0 mm 3 mps 567 mmHg 74%
    17:00 -17°C° 0 mm 3 mps 566 mmHg 77%
    18:00 -19°C° 0 mm 3 mps 565 mmHg 81%
    19:00 -22°C° 0 mm 3 mps 564 mmHg 85%
    20:00 -22°C° 0 mm 3 mps 565 mmHg 85%
    21:00 -22°C° 0 mm 3 mps 565 mmHg 86%
    22:00 -22°C° 0 mm 3 mps 565 mmHg 86%
    23:00 -22°C° 0 mm 3 mps 565 mmHg 85%

    28 February, Thursday

    Time Temperature Precipitation Wind Pressure Humidity
    00:00 -22°C° 0 mm 3 mps 564 mmHg 84%
    01:00 -23°C° 0 mm 3 mps 564 mmHg 84%
    02:00 -23°C° 0 mm 3 mps 564 mmHg 82%
    03:00 -23°C° 0 mm 3 mps 564 mmHg 81%
    04:00 -24°C° 0 mm 3 mps 563 mmHg 80%
    05:00 -23°C° 0 mm 2 mps 563 mmHg 78%
    06:00 -23°C° 0 mm 2 mps 564 mmHg 76%
    07:00 -23°C° 0 mm 2 mps 564 mmHg 74%
    08:00 -20°C° 0 mm 2 mps 564 mmHg 73%
    09:00 -18°C° 0 mm 2 mps 565 mmHg 72%
    10:00 -16°C° 0 mm 2 mps 565 mmHg 71%
    11:00 -14°C° 0 mm 2 mps 565 mmHg 68%
    12:00 -13°C° 0 mm 2 mps 565 mmHg 66%
    13:00 -12°C° 0 mm 2 mps 565 mmHg 63%
    14:00 -12°C° 0 mm 2 mps 565 mmHg 66%
    15:00 -12°C° 0 mm 2 mps 564 mmHg 69%
    16:00 -13°C° 0 mm 2 mps 564 mmHg 72%
    17:00 -15°C° 0 mm 2 mps 563 mmHg 74%
    18:00 -17°C° 0 mm 2 mps 563 mmHg 76%
    19:00 -19°C° 0 mm 2 mps 562 mmHg 78%
    20:00 -19°C° 0 mm 2 mps 562 mmHg 78%
    21:00 -20°C° 0 mm 2 mps 563 mmHg 79%
    22:00 -20°C° 0 mm 2 mps 563 mmHg 79%
    23:00 -20°C° 0 mm 2 mps 563 mmHg 79%

    1 March, Friday

    Time Temperature Precipitation Wind Pressure Humidity
    00:00 -20°C° 0 mm 2 mps 563 mmHg 79%
    01:00 -20°C° 0 mm 2 mps 563 mmHg 79%
    02:00 -20°C° 0 mm 2 mps 563 mmHg 79%
    03:00 -20°C° 0 mm 2 mps 563 mmHg 78%
    04:00 -20°C° 0 mm 2 mps 563 mmHg 77%
    05:00 -20°C° 0 mm 2 mps 564 mmHg 78%
    06:00 -20°C° 0 mm 2 mps 564 mmHg 78%
    07:00 -21°C° 0 mm 2 mps 564 mmHg 78%
    08:00 -19°C° 0 mm 2 mps 565 mmHg 77%
    09:00 -15°C° 0 mm 1 mps 566 mmHg 76%
    10:00 -13°C° 0 mm 1 mps 567 mmHg 75%
    11:00 -12°C° 0 mm 1 mps 567 mmHg 72%
    12:00 -11°C° 0 mm 1 mps 567 mmHg 69%
    13:00 -10°C° 0 mm 1 mps 568 mmHg 66%
    14:00 -10°C° 0 mm 1 mps 567 mmHg 68%
    15:00 -10°C° 0 mm 1 mps 567 mmHg 70%
    16:00 -10°C° 0 mm 1 mps 567 mmHg 72%
    17:00 -13°C° 0 mm 1 mps 567 mmHg 76%
    18:00 -15°C° 0 mm 1 mps 566 mmHg 81%
    19:00 -17°C° 0 mm 1 mps 565 mmHg 85%
    20:00 -18°C° 0 mm 1 mps 565 mmHg 84%
    21:00 -20°C° 0 mm 2 mps 565 mmHg 83%
    22:00 -21°C° 0 mm 2 mps 566 mmHg 83%
    23:00 -21°C° 0 mm 2 mps 566 mmHg 82%
    Show more